TimeCST,TemperatureF,Dew PointF,Humidity,Sea Level PressureIn,VisibilityMPH,Wind Direction,Wind SpeedMPH,Gust SpeedMPH,PrecipitationIn,Events,Conditions,WindDirDegrees,DateUTC
12:15 AM,7.7,5.5,91,30.13,10.0,Calm,Calm,-,N/A,,Clear,0,2013-01-16 06:15:00
12:35 AM,7.2,5.2,92,30.12,10.0,Calm,Calm,-,N/A,,Clear,0,2013-01-16 06:35:00
12:55 AM,8.4,6.3,91,30.12,10.0,Calm,Calm,-,N/A,,Clear,0,2013-01-16 06:55:00
1:15 AM,8.1,6.3,92,30.12,10.0,WSW,3.5,-,N/A,,Clear,240,2013-01-16 07:15:00
1:35 AM,7.7,5.4,90,30.11,10.0,South,3.5,-,N/A,,Clear,180,2013-01-16 07:35:00
1:55 AM,9.0,7.0,92,30.11,10.0,South,4.6,-,N/A,,Clear,190,2013-01-16 07:55:00
2:15 AM,10.9,8.2,89,30.11,10.0,SSW,5.8,-,N/A,,Clear,200,2013-01-16 08:15:00
2:35 AM,11.5,8.6,88,30.11,10.0,SSW,4.6,-,N/A,,Clear,210,2013-01-16 08:35:00
2:55 AM,11.7,8.6,88,30.10,10.0,SSW,5.8,-,N/A,,Clear,210,2013-01-16 08:55:00
3:15 AM,11.8,8.4,86,30.09,10.0,SSW,4.6,-,N/A,,Clear,200,2013-01-16 09:15:00
3:35 AM,11.3,7.3,84,30.08,10.0,South,4.6,-,N/A,,Clear,190,2013-01-16 09:35:00
3:55 AM,10.8,7.3,86,30.07,10.0,South,4.6,-,N/A,,Clear,190,2013-01-16 09:55:00
4:15 AM,10.8,7.5,87,30.04,10.0,South,6.9,-,N/A,,Clear,190,2013-01-16 10:15:00
4:35 AM,10.4,6.8,85,30.04,10.0,South,8.1,-,N/A,,Clear,190,2013-01-16 10:35:00
4:55 AM,10.4,6.8,85,30.03,10.0,SSW,6.9,-,N/A,,Clear,210,2013-01-16 10:55:00
5:15 AM,10.4,6.6,85,30.03,10.0,SSW,5.8,-,N/A,,Clear,200,2013-01-16 11:15:00
5:35 AM,10.0,6.3,85,30.03,10.0,SSW,6.9,-,N/A,,Clear,200,2013-01-16 11:35:00
5:55 AM,10.4,6.4,84,30.03,10.0,SSW,8.1,-,N/A,,Clear,200,2013-01-16 11:55:00
6:15 AM,10.4,6.8,85,30.02,10.0,SSW,8.1,-,N/A,,Clear,200,2013-01-16 12:15:00
6:35 AM,12.2,8.1,83,30.01,10.0,SSW,9.2,-,N/A,,Clear,200,2013-01-16 12:35:00
6:55 AM,12.7,8.2,82,30.00,10.0,SSW,9.2,-,N/A,,Clear,200,2013-01-16 12:55:00
7:15 AM,13.8,9.0,81,29.99,10.0,SSW,10.4,-,N/A,,Clear,200,2013-01-16 13:15:00
7:35 AM,14.7,9.3,79,30.00,10.0,SSW,11.5,-,N/A,,Clear,210,2013-01-16 13:35:00
7:55 AM,15.3,9.5,78,29.99,10.0,SSW,10.4,-,N/A,,Clear,200,2013-01-16 13:55:00
8:15 AM,16.9,10.2,75,30.00,10.0,SSW,10.4,-,N/A,,Clear,210,2013-01-16 14:15:00
8:35 AM,18.0,11.3,75,30.00,10.0,SSW,8.1,-,N/A,,Clear,210,2013-01-16 14:35:00
8:55 AM,19.8,11.8,71,30.01,10.0,SSW,12.7,-,N/A,,Clear,210,2013-01-16 14:55:00
9:15 AM,21.2,12.9,70,29.99,10.0,SSW,10.4,-,N/A,,Clear,200,2013-01-16 15:15:00
9:35 AM,22.6,13.8,69,30.00,10.0,SSW,11.5,-,N/A,,Clear,210,2013-01-16 15:35:00
9:55 AM,23.9,15.4,70,29.99,10.0,South,12.7,-,N/A,,Clear,190,2013-01-16 15:55:00
10:15 AM,24.8,15.4,68,29.98,10.0,SSW,12.7,-,N/A,,Clear,200,2013-01-16 16:15:00
10:35 AM,26.4,16.7,67,29.98,10.0,SSW,13.8,-,N/A,,Clear,210,2013-01-16 16:35:00
10:55 AM,27.1,17.2,66,29.96,10.0,SSW,15.0,-,N/A,,Clear,200,2013-01-16 16:55:00
11:15 AM,28.4,18.3,66,29.96,10.0,SSW,17.3,23.0,N/A,,Clear,210,2013-01-16 17:15:00
11:35 AM,29.3,19.6,67,29.94,10.0,SSW,17.3,23.0,N/A,,Clear,200,2013-01-16 17:35:00
11:55 AM,30.7,20.1,65,29.93,10.0,SSW,16.1,-,N/A,,Clear,200,2013-01-16 17:55:00
12:15 PM,32.0,20.8,63,29.92,10.0,SSW,17.3,23.0,N/A,,Clear,210,2013-01-16 18:15:00
12:35 PM,32.7,21.2,63,29.91,10.0,SSW,17.3,21.9,N/A,,Mostly Cloudy,210,2013-01-16 18:35:00
12:55 PM,33.1,20.8,61,29.90,10.0,SSW,17.3,27.6,N/A,,Mostly Cloudy,210,2013-01-16 18:55:00
1:15 PM,33.8,21.6,61,29.89,10.0,SW,16.1,21.9,N/A,,Scattered Clouds,220,2013-01-16 19:15:00
1:35 PM,33.8,22.3,63,29.89,10.0,SSW,19.6,25.3,N/A,,Scattered Clouds,210,2013-01-16 19:35:00
1:55 PM,33.8,23.0,65,29.89,10.0,SW,15.0,25.3,N/A,,Scattered Clouds,220,2013-01-16 19:55:00
2:15 PM,34.7,23.4,63,29.90,10.0,SSW,17.3,21.9,N/A,,Scattered Clouds,210,2013-01-16 20:15:00
2:35 PM,34.3,23.4,64,29.91,10.0,SW,13.8,21.9,N/A,,Mostly Cloudy,220,2013-01-16 20:35:00
2:55 PM,34.7,23.7,64,29.93,10.0,SW,13.8,20.7,N/A,,Overcast,220,2013-01-16 20:55:00
3:15 PM,34.7,24.4,66,29.93,10.0,SW,11.5,18.4,N/A,,Overcast,220,2013-01-16 21:15:00
3:35 PM,34.7,25.3,69,29.94,10.0,SW,10.4,-,N/A,,Overcast,220,2013-01-16 21:35:00
3:55 PM,34.7,25.7,70,29.94,10.0,SSW,11.5,-,N/A,,Overcast,210,2013-01-16 21:55:00
4:15 PM,34.7,26.4,72,29.95,10.0,SW,11.5,-,N/A,,Overcast,220,2013-01-16 22:15:00
4:35 PM,34.7,26.6,72,29.96,10.0,SW,9.2,-,N/A,,Overcast,220,2013-01-16 22:35:00
4:55 PM,35.1,27.0,72,29.96,10.0,SW,10.4,-,N/A,,Overcast,230,2013-01-16 22:55:00
5:15 PM,34.9,27.3,74,29.97,10.0,SW,8.1,-,N/A,,Overcast,230,2013-01-16 23:15:00
5:35 PM,34.3,26.8,74,29.98,10.0,SW,8.1,-,N/A,,Mostly Cloudy,230,2013-01-16 23:35:00
5:55 PM,33.4,26.6,76,29.98,10.0,SW,6.9,-,N/A,,Scattered Clouds,220,2013-01-16 23:55:00
6:15 PM,33.8,27.3,77,29.99,10.0,SW,8.1,-,N/A,,Overcast,220,2013-01-17 00:15:00
6:35 PM,34.0,27.5,77,30.00,10.0,SW,9.2,-,N/A,,Overcast,220,2013-01-17 00:35:00
6:55 PM,34.2,27.5,77,30.01,10.0,SSW,11.5,-,N/A,,Overcast,210,2013-01-17 00:55:00
7:15 PM,34.2,27.9,78,30.02,10.0,SSW,11.5,-,N/A,,Overcast,210,2013-01-17 01:15:00
7:35 PM,34.2,27.5,77,30.02,10.0,SW,11.5,-,N/A,,Overcast,220,2013-01-17 01:35:00
7:55 PM,34.3,27.7,77,30.03,10.0,SW,11.5,-,N/A,,Overcast,220,2013-01-17 01:55:00
8:15 PM,34.0,28.2,79,30.03,10.0,SSW,11.5,-,N/A,,Overcast,210,2013-01-17 02:15:00
8:35 PM,34.0,28.2,79,30.03,10.0,SW,10.4,-,N/A,,Overcast,220,2013-01-17 02:35:00
8:55 PM,34.2,27.9,78,30.03,10.0,SW,10.4,-,N/A,,Overcast,220,2013-01-17 02:55:00
9:15 PM,34.3,28.2,78,30.03,10.0,SW,9.2,-,N/A,,Overcast,220,2013-01-17 03:15:00
9:35 PM,34.0,28.9,82,30.03,10.0,SSW,9.2,-,N/A,,Overcast,210,2013-01-17 03:35:00
9:55 PM,34.5,28.8,79,30.03,10.0,SW,9.2,-,N/A,,Overcast,230,2013-01-17 03:55:00
10:15 PM,34.5,29.1,81,30.04,10.0,WSW,6.9,-,N/A,,Overcast,240,2013-01-17 04:15:00
10:35 PM,35.4,28.9,77,30.04,10.0,WSW,5.8,-,N/A,,Overcast,250,2013-01-17 04:35:00
10:55 PM,35.1,28.9,78,30.05,10.0,WSW,5.8,-,N/A,,Overcast,250,2013-01-17 04:55:00
11:15 PM,33.8,28.6,81,30.07,10.0,West,6.9,-,N/A,,Overcast,260,2013-01-17 05:15:00
11:35 PM,34.3,29.7,83,30.07,10.0,West,8.1,-,N/A,,Overcast,280,2013-01-17 05:35:00
11:55 PM,33.3,29.5,86,30.08,10.0,West,6.9,-,N/A,,Mostly Cloudy,270,2013-01-17 05:55:00